Rhinelander, WI

6:23 AM CDT on May 29, 2017 (GMT -0500)
Rhinelander-Oneida County

Weather History for KRHI - March, 2013

Change the Weather History Date:

Tuesday, March 19, 2013

  Actual Average Record
Temperature  
Mean Temperature 20 °F 28 °F  
Max Temperature 27 °F 38 °F 78 °F (2012)
Min Temperature 12 °F 18 °F -24 °F (1944)
Degree Days  
Heating Degree Days 45 37  
Month to date heating degree days 855 770  
Since 1 July heating degree days 7255 7392  
Cooling Degree Days 0 0  
Month to date cooling degree days 0 0  
Year to date cooling degree days 0 0  
Moisture  
Dew Point 7 °F    
Average Humidity 61    
Maximum Humidity 84    
Minimum Humidity 38    
Precipitation  
Precipitation 0.05 in 0.06 in 0.83 in (1943)
Month to date precipitation 1.47 0.88  
Year to date precipitation 4.27 2.92  
Snow  
Snow 1.00 in - 10.00 in (1943)
Month to date snowfall 15.3  
Since 1 July snowfall 67.9  
Snow Depth 24.00 in    
Sea Level Pressure  
Sea Level Pressure 29.64 in    
Wind  
Wind Speed 16 mph (West)    
Max Wind Speed 29 mph    
Max Gust Speed 38 mph    
Visibility 5 miles    
Events Snow    
T = Trace of Precipitation, MM = Missing Value Source: NWS Daily Summary

Daily Weather History Graph

Daily Weather History Graph

Search for Another Location

Airport or City:

Trip Planner

Search our weather history database for the weather conditions in past years. The results will help you decide how hot, cold, wet, or windy it might be!

Date:

Astronomy

Mar. 19, 2013 Rise Set
Actual Time 7:02 AM CDT 7:09 PM CDT
Civil Twilight 6:32 AM CDT 7:39 PM CDT
Nautical Twilight 5:58 AM CDT 8:13 PM CDT
Astronomical Twilight 5:22 AM CDT 8:49 PM CDT
Moon 11:36 AM CDT (3/19) 2:12 AM CDT (3/19)
Length of Visible Light 13h 06m
Length of Day
12h 07m
Waxing Crescent, 50% of the Moon is Illuminated
Mar 19
Waxing Crescent
Mar 19
First Quarter
Mar 27
Full
Apr 2
Last Quarter
Apr 10
New

Hourly Weather History & Observations

Time (CDT) Temp. Windchill Dew Point Humidity Pressure Visibility Wind Dir Wind Speed Gust Speed Precip Events Conditions
12:06 AM 15.8 °F 0.3 °F 10.4 °F 79% 29.49 in 4.0 mi West 16.1 mph 24.2 mph 0.00 in Snow Light Snow
12:13 AM 15.8 °F 1.4 °F 10.4 °F 79% 29.49 in 4.0 mi WSW 13.8 mph - 0.00 in Snow Light Snow
1:05 AM 15.8 °F 0.9 °F 10.4 °F 79% 29.48 in 2.0 mi WSW 15.0 mph - 0.00 in Snow Light Snow
1:12 AM 15.8 °F 1.4 °F 10.4 °F 79% 29.48 in 1.5 mi WSW 13.8 mph - 0.00 in Snow Light Snow
1:27 AM 15.8 °F 1.4 °F 10.4 °F 79% 29.47 in 2.0 mi WSW 13.8 mph - 0.00 in Snow Light Snow
1:49 AM 15.8 °F 2.1 °F 10.4 °F 79% 29.47 in 1.2 mi WSW 12.7 mph - 0.00 in Snow Light Snow
1:53 AM 15.1 °F 1.1 °F 10.0 °F 80% 29.55 in 1.5 mi WSW 12.7 mph - 0.00 in Snow Light Snow
2:02 AM 15.8 °F 0.9 °F 10.4 °F 79% 29.47 in 2.0 mi West 15.0 mph - 0.00 in Snow Light Snow
2:09 AM 15.8 °F 0.9 °F 10.4 °F 79% 29.48 in 1.0 mi WSW 15.0 mph - 0.00 in Snow Light Snow
2:51 AM 15.8 °F -0.2 °F 10.4 °F 79% 29.47 in 1.5 mi West 17.3 mph - 0.00 in Snow Light Snow
2:53 AM 16.0 °F 0.1 °F 10.9 °F 81% 29.55 in 1.2 mi West 17.3 mph 23.0 mph 0.00 in Snow Light Snow
3:04 AM 15.8 °F -0.2 °F 10.4 °F 79% 29.48 in 1.0 mi West 17.3 mph - 0.01 in Snow Light Snow
3:53 AM 15.1 °F -0.6 °F 10.0 °F 80% 29.56 in 1.2 mi West 16.1 mph 26.5 mph 0.01 in Snow Light Snow
4:53 AM 12.9 °F -2.8 °F 8.1 °F 81% 29.58 in 1.2 mi West 15.0 mph 29.9 mph 0.00 in Snow Light Snow
5:04 AM 12.2 °F -6.3 °F 6.8 °F 79% 29.50 in 2.5 mi West 20.7 mph 27.6 mph 0.00 in Snow Light Snow
5:14 AM 12.2 °F -5.8 °F 6.8 °F 79% 29.50 in 4.0 mi West 19.6 mph 26.5 mph 0.00 in Snow Light Snow
5:24 AM 12.2 °F -4.8 °F 6.8 °F 79% 29.51 in 5.0 mi West 17.3 mph 25.3 mph 0.00 in Snow Light Snow
5:53 AM 12.9 °F -5.3 °F 6.1 °F 74% 29.60 in 3.0 mi West 20.7 mph 26.5 mph 0.00 in Snow Light Snow
6:03 AM 12.2 °F -4.8 °F 6.8 °F 79% 29.53 in 2.5 mi West 17.3 mph 27.6 mph 0.00 in Snow Light Snow
6:15 AM 12.2 °F -5.8 °F 6.8 °F 79% 29.54 in 1.8 mi West 19.6 mph 31.1 mph 0.00 in Snow Light Snow
6:24 AM 12.2 °F -5.3 °F 6.8 °F 79% 29.54 in 2.5 mi West 18.4 mph 24.2 mph 0.00 in Snow Light Snow
6:33 AM 12.2 °F -5.8 °F 6.8 °F 79% 29.54 in 5.0 mi West 19.6 mph 23.0 mph 0.00 in Snow Light Snow
6:53 AM 12.0 °F -5.6 °F 6.1 °F 77% 29.64 in 4.0 mi West 18.4 mph 26.5 mph 0.00 in Snow Light Snow
7:43 AM 12.2 °F -4.3 °F 6.8 °F 79% 29.58 in 2.5 mi West 16.1 mph 26.5 mph 0.00 in Snow Light Snow
7:53 AM 12.0 °F -4.0 °F 5.0 °F 73% 29.67 in 2.5 mi West 15.0 mph 29.9 mph 0.00 in Snow Light Snow
8:01 AM 12.2 °F -5.3 °F 5.0 °F 73% 29.59 in 4.0 mi West 18.4 mph 25.3 mph 0.00 in Snow Light Snow
8:50 AM 12.2 °F -4.8 °F 5.0 °F 73% 29.61 in 4.0 mi West 17.3 mph 27.6 mph 0.00 in Snow Light Snow
8:53 AM 12.0 °F -5.1 °F 5.0 °F 73% 29.70 in 5.0 mi West 17.3 mph 27.6 mph 0.00 in Snow Light Snow
9:17 AM 12.2 °F -5.3 °F 5.0 °F 73% 29.61 in 1.0 mi West 18.4 mph 24.2 mph 0.00 in Snow Light Snow
9:22 AM 12.2 °F -5.8 °F 5.0 °F 73% 29.61 in 3.0 mi West 19.6 mph 26.5 mph 0.00 in Snow Light Snow
9:53 AM 14.0 °F -3.0 °F 6.1 °F 71% 29.71 in 6.0 mi WNW 18.4 mph 29.9 mph 0.00 in   Overcast
10:53 AM 17.1 °F 1.5 °F 7.0 °F 65% 29.74 in 10.0 mi West 17.3 mph 25.3 mph 0.00 in   Overcast
11:53 AM 19.0 °F 5.0 °F 9.0 °F 65% 29.76 in 9.0 mi West 15.0 mph 31.1 mph 0.00 in Snow Light Snow
12:53 PM 21.0 °F 6.2 °F 10.0 °F 63% 29.78 in 9.0 mi West 18.4 mph 28.8 mph 0.00 in   Overcast
1:50 PM 24.8 °F 10.0 °F 10.4 °F 54% 29.71 in 10.0 mi West 21.9 mph 33.4 mph 0.00 in   Overcast
1:53 PM 24.1 °F 9.8 °F 10.9 °F 57% 29.79 in 10.0 mi WNW 19.6 mph 33.4 mph 0.00 in   Overcast
2:53 PM 25.0 °F 11.3 °F 10.0 °F 53% 29.80 in 10.0 mi West 18.4 mph 32.2 mph 0.00 in   Mostly Cloudy
3:53 PM 26.1 °F 12.0 °F 7.0 °F 44% 29.82 in 10.0 mi West 20.7 mph 27.6 mph 0.00 in   Mostly Cloudy
4:53 PM 26.1 °F 15.0 °F 5.0 °F 41% 29.85 in 10.0 mi West 12.7 mph 27.6 mph 0.00 in   Clear
5:53 PM 25.0 °F 10.2 °F 5.0 °F 43% 29.88 in 10.0 mi West 21.9 mph 33.4 mph N/A   Clear
6:53 PM 23.0 °F 8.0 °F 3.0 °F 42% 29.90 in 10.0 mi WNW 20.7 mph 29.9 mph N/A   Clear
7:53 PM 21.9 °F 9.8 °F 1.0 °F 40% 29.93 in 10.0 mi WNW 12.7 mph 25.3 mph N/A   Clear
8:53 PM 19.0 °F 8.2 °F 1.0 °F 46% 29.95 in 10.0 mi WNW 9.2 mph - N/A   Clear
10:53 PM 16.0 °F 2.3 °F 1.0 °F 52% 29.96 in 10.0 mi WNW 12.7 mph 19.6 mph N/A   Clear
11:53 PM 14.0 °F 1.2 °F 1.0 °F 56% 29.96 in 10.0 mi West 10.4 mph 18.4 mph N/A   Partly Cloudy